�������l�o���
Date,Time,MP-1(��Sv/h),MP-2(��Sv/h),MP-3(��Sv/h),MP-4(��Sv/h),MP-5(��Sv/h),MP-6(��Sv/h),MP-7(��Sv/h),MP-8(��Sv/h),����,����(m/s),���J
2023/09/27,00:00,0.532,0.804,0.495,1.005,0.716,0.322,0.575,0.535,-,CALM,��
2023/09/27,00:10,0.533,0.804,0.495,1.004,0.715,0.321,0.573,0.534,�k��,0.6,��
2023/09/27,00:20,0.530,0.806,0.494,1.003,0.716,0.321,0.574,0.535,-,CALM,��
2023/09/27,00:30,0.533,0.805,0.493,1.005,0.715,0.322,0.573,0.534,�k��,0.9,��
2023/09/27,00:40,0.533,0.806,0.496,1.003,0.715,0.321,0.575,0.536,�k�k��,0.9,��
2023/09/27,00:50,0.533,0.805,0.496,1.002,0.713,0.322,0.574,0.534,�k�k��,1.7,�L
2023/09/27,01:00,0.533,0.806,0.496,1.005,0.719,0.321,0.574,0.536,�k,1.5,�L
2023/09/27,01:10,0.533,0.806,0.496,1.005,0.716,0.323,0.575,0.534,�k,0.9,�L
2023/09/27,01:20,0.534,0.807,0.495,1.004,0.716,0.325,0.572,0.534,�k�k��,1.2,�L
2023/09/27,01:30,0.534,0.805,0.497,1.006,0.717,0.325,0.574,0.536,�k,1.7,�L
2023/09/27,01:40,0.532,0.804,0.494,1.006,0.715,0.324,0.574,0.534,�k,2.2,�L
2023/09/27,01:50,0.532,0.806,0.495,1.007,0.716,0.325,0.574,0.535,�k,1.7,��
2023/09/27,02:00,0.531,0.806,0.495,1.005,0.715,0.323,0.573,0.536,�k,2.3,��
2023/09/27,02:10,0.533,0.802,0.494,1.004,0.714,0.325,0.573,0.534,�k�k��,1.2,��
2023/09/27,02:20,0.531,0.803,0.493,1.006,0.715,0.322,0.573,0.536,�k��,1.1,��
2023/09/27,02:30,0.530,0.805,0.494,1.003,0.713,0.322,0.573,0.534,���k��,1.4,�L
2023/09/27,02:40,0.532,0.802,0.493,1.004,0.714,0.321,0.572,0.535,���k��,1.2,�L
2023/09/27,02:50,0.533,0.801,0.493,1.003,0.715,0.323,0.573,0.534,��,1.2,�L
2023/09/27,03:00,0.531,0.803,0.493,1.004,0.713,0.320,0.572,0.534,���k��,1.2,�L
2023/09/27,03:10,0.532,0.804,0.494,1.003,0.712,0.321,0.573,0.535,-,CALM,��
2023/09/27,03:20,0.530,0.803,0.492,1.003,0.712,0.321,0.573,0.534,�k��,0.6,��
2023/09/27,03:30,0.531,0.801,0.493,1.003,0.714,0.321,0.574,0.535,-,CALM,��
2023/09/27,03:40,0.529,0.801,0.493,1.004,0.713,0.321,0.572,0.536,�k��,0.9,��
2023/09/27,03:50,0.529,0.802,0.493,1.004,0.711,0.322,0.574,0.535,�k��,2.9,��
2023/09/27,04:00,0.532,0.805,0.491,1.001,0.713,0.321,0.573,0.533,�k��,3.7,��
2023/09/27,04:10,0.532,0.801,0.494,1.003,0.713,0.321,0.572,0.535,�k�k��,3.7,��
2023/09/27,04:20,0.529,0.803,0.494,1.006,0.712,0.320,0.573,0.534,�k�k��,3.3,��
2023/09/27,04:30,0.532,0.801,0.493,1.003,0.713,0.321,0.574,0.535,�k�k��,2.6,�L
2023/09/27,04:40,0.530,0.803,0.492,1.003,0.714,0.322,0.572,0.535,�k��,2.8,�L
2023/09/27,04:50,0.531,0.801,0.493,1.004,0.712,0.322,0.572,0.534,�k��,3.0,�L
2023/09/27,05:00,0.529,0.800,0.492,1.004,0.712,0.321,0.572,0.533,�k�k��,2.3,�L
2023/09/27,05:10,0.529,0.803,0.492,1.003,0.712,0.321,0.572,0.534,�k��,1.7,��
2023/09/27,05:20,0.529,0.802,0.492,1.004,0.713,0.322,0.573,0.535,�k�k��,2.5,��
2023/09/27,05:30,0.530,0.800,0.493,1.002,0.712,0.321,0.574,0.534,�k�k��,3.1,��
2023/09/27,05:40,0.530,0.801,0.492,1.003,0.714,0.322,0.574,0.536,�k��,4.5,�L
2023/09/27,05:50,0.531,0.802,0.493,1.002,0.712,0.323,0.573,0.534,�k�k��,5.1,�L
2023/09/27,06:00,0.531,0.804,0.493,1.004,0.712,0.321,0.575,0.534,�k�k��,4.9,�L
2023/09/27,06:10,0.532,0.803,0.494,1.005,0.713,0.322,0.575,0.535,�k�k��,5.7,�L
2023/09/27,06:20,0.531,0.801,0.494,1.004,0.712,0.321,0.575,0.534,�k��,6.7,�L
2023/09/27,06:30,0.530,0.802,0.494,1.006,0.715,0.322,0.574,0.535,�k�k��,5.7,�L
2023/09/27,06:40,0.531,0.801,0.494,1.005,0.716,0.323,0.574,0.535,�k�k��,5.0,�L
2023/09/27,06:50,0.529,0.799,0.494,1.008,0.714,0.324,0.574,0.536,�k�k��,4.6,�L
2023/09/27,07:00,0.529,0.801,0.494,1.006,0.713,0.323,0.573,0.536,�k�k��,4.5,�L
2023/09/27,07:10,0.531,0.801,0.493,1.007,0.712,0.323,0.573,0.534,�k�k��,4.9,�L
2023/09/27,07:20,0.530,0.800,0.495,1.005,0.711,0.326,0.574,0.535,�k�k��,5.1,�L
2023/09/27,07:30,0.529,0.797,0.494,1.006,0.711,0.325,0.574,0.533,�k�k��,5.3,�L
2023/09/27,07:40,0.528,0.797,0.494,1.007,0.710,0.325,0.572,0.533,�k�k��,5.1,�L
2023/09/27,07:50,0.528,0.796,0.493,1.004,0.711,0.324,0.573,0.532,�k�k��,5.6,�L
2023/09/27,08:00,0.529,0.796,0.493,1.005,0.708,0.323,0.571,0.532,�k�k��,5.4,�L
2023/09/27,08:10,0.528,0.793,0.495,1.003,0.709,0.324,0.574,0.533,�k�k��,6.2,�L
2023/09/27,08:20,0.530,0.796,0.494,1.004,0.710,0.325,0.573,0.533,�k�k��,5.2,�L
2023/09/27,08:30,0.531,0.793,0.494,1.002,0.708,0.326,0.573,0.533,�k�k��,5.8,�L
2023/09/27,08:40,0.528,0.794,0.493,1.004,0.707,0.324,0.572,0.533,�k�k��,5.3,�L
2023/09/27,08:50,0.528,0.791,0.492,1.000,0.706,0.323,0.572,0.532,�k��,4.7,�L
2023/09/27,09:00,0.527,0.791,0.492,0.998,0.707,0.323,0.572,0.531,�k��,4.1,�L
2023/09/27,09:10,0.526,0.791,0.490,0.999,0.704,0.324,0.571,0.532,�k��,4.8,�L
2023/09/27,09:20,0.523,0.788,0.491,0.997,0.703,0.322,0.572,0.530,�k��,3.8,�L
2023/09/27,09:30,0.520,0.786,0.489,0.998,0.703,0.322,0.571,0.530,�k��,3.3,�L
2023/09/27,09:40,0.519,0.787,0.488,0.995,0.701,0.320,0.569,0.531,�k�k��,4.1,�L
2023/09/27,09:50,0.517,0.786,0.488,0.996,0.701,0.319,0.571,0.529,�k�k��,3.6,�L
2023/09/27,10:00,0.516,0.786,0.487,0.997,0.699,0.321,0.571,0.530,�k�k��,3.7,�L
2023/09/27,10:10,0.517,0.785,0.484,0.995,0.699,0.322,0.570,0.530,�k�k��,3.9,�L
2023/09/27,10:20,0.518,0.783,0.486,0.993,0.701,0.319,0.573,0.530,�k�k��,3.9,�L
2023/09/27,10:30,0.516,0.783,0.487,0.994,0.701,0.320,0.571,0.529,�k�k��,4.6,�L
2023/09/27,10:40,0.515,0.780,0.484,0.993,0.700,0.321,0.571,0.528,�k,3.9,�L
2023/09/27,10:50,0.515,0.779,0.482,0.988,0.694,0.320,0.569,0.529,�k�k��,2.0,�L
2023/09/27,11:00,0.515,0.778,0.481,0.983,0.694,0.320,0.568,0.529,�k�k��,3.2,�L
2023/09/27,11:10,0.513,0.775,0.483,0.981,0.691,0.321,0.568,0.528,�k�k��,4.2,�L
2023/09/27,11:20,0.516,0.777,0.483,0.979,0.695,0.321,0.567,0.527,�k,3.4,�L
2023/09/27,11:30,0.516,0.774,0.484,0.976,0.692,0.322,0.569,0.528,�k�k��,4.3,�L
2023/09/27,11:40,0.520,0.774,0.483,0.975,0.693,0.321,0.568,0.527,�k�k��,3.9,�L
2023/09/27,11:50,0.519,0.773,0.485,0.972,0.693,0.323,0.567,0.527,�k�k��,4.4,�L
2023/09/27,12:00,0.519,0.774,0.484,0.974,0.694,0.322,0.566,0.526,�k�k��,4.0,�L
2023/09/27,12:10,0.517,0.775,0.486,0.974,0.695,0.321,0.567,0.528,�k�k��,3.8,�L
2023/09/27,12:20,0.519,0.777,0.486,0.973,0.693,0.321,0.567,0.526,�k�k��,3.8,�L
2023/09/27,12:30,0.517,0.777,0.484,0.971,0.693,0.320,0.566,0.527,�k�k��,2.6,�L
2023/09/27,12:40,0.518,0.777,0.485,0.972,0.692,0.320,0.565,0.527,�k�k��,2.6,�L
2023/09/27,12:50,0.516,0.776,0.481,0.972,0.693,0.319,0.564,0.526,�k��,1.9,�L
2023/09/27,13:00,0.513,0.776,0.482,0.974,0.692,0.320,0.565,0.526,�k�k��,1.5,�L
2023/09/27,13:10,0.515,0.774,0.481,0.971,0.688,0.318,0.565,0.525,�k��,0.9,�L
2023/09/27,13:20,0.514,0.773,0.481,0.970,0.690,0.316,0.565,0.525,�k�k��,0.9,�L
2023/09/27,13:30,0.515,0.774,0.483,0.970,0.690,0.315,0.563,0.527,���k��,0.6,�L
2023/09/27,13:40,0.515,0.776,0.479,0.970,0.690,0.316,0.564,0.525,-,CALM,�L
2023/09/27,13:50,0.515,0.774,0.480,0.970,0.689,0.318,0.564,0.526,-,CALM,�L
2023/09/27,14:00,0.514,0.774,0.479,0.971,0.691,0.317,0.563,0.526,��,0.9,�L
2023/09/27,14:10,0.514,0.775,0.480,0.973,0.689,0.317,0.564,0.525,�쓌,0.6,�L
2023/09/27,14:20,0.514,0.774,0.479,0.970,0.689,0.317,0.565,0.526,���쓌,0.9,��
2023/09/27,14:30,0.513,0.772,0.478,0.970,0.693,0.317,0.562,0.526,�쓌,1.4,��
2023/09/27,14:40,0.512,0.773,0.482,0.971,0.689,0.316,0.562,0.525,���쓌,1.2,��
2023/09/27,14:50,0.512,0.775,0.479,0.968,0.688,0.313,0.561,0.524,��,0.6,��
2023/09/27,15:00,0.512,0.774,0.481,0.970,0.688,0.313,0.564,0.524,���쓌,0.9,��
2023/09/27,15:10,0.512,0.773,0.479,0.971,0.687,0.314,0.562,0.526,-,CALM,��
2023/09/27,15:20,0.512,0.772,0.478,0.970,0.689,0.314,0.562,0.525,�k�k��,0.6,��
2023/09/27,15:30,0.511,0.772,0.478,0.970,0.688,0.314,0.563,0.525,�k�k��,1.5,��
2023/09/27,15:40,0.512,0.772,0.479,0.969,0.689,0.314,0.562,0.525,�k�k��,1.4,�L
2023/09/27,15:50,0.513,0.774,0.480,0.969,0.689,0.314,0.563,0.524,�k�k��,1.2,�L
2023/09/27,16:00,0.513,0.773,0.478,0.972,0.689,0.313,0.562,0.525,�k��,2.0,�L
2023/09/27,16:10,0.514,0.774,0.480,0.971,0.689,0.314,0.563,0.525,�k�k��,2.0,�L
2023/09/27,16:20,0.513,0.776,0.480,0.970,0.692,0.314,0.564,0.525,�k��,2.5,�L
2023/09/27,16:30,0.513,0.776,0.480,0.972,0.692,0.313,0.562,0.525,�k��,2.9,�L
2023/09/27,16:40,0.514,0.778,0.481,0.969,0.692,0.314,0.563,0.525,�k�k��,3.1,�L
2023/09/27,16:50,0.514,0.776,0.480,0.972,0.692,0.314,0.563,0.524,�k�k��,3.5,�L
2023/09/27,17:00,0.515,0.777,0.480,0.971,0.691,0.317,0.563,0.524,�k�k��,3.7,�L
2023/09/27,17:10,0.514,0.779,0.482,0.972,0.694,0.316,0.562,0.525,�k�k��,3.5,�L
2023/09/27,17:20,0.514,0.776,0.479,0.971,0.693,0.316,0.564,0.525,�k�k��,4.6,�L
2023/09/27,17:30,0.514,0.778,0.481,0.970,0.692,0.316,0.564,0.525,�k�k��,5.2,�L
2023/09/27,17:40,0.516,0.777,0.481,0.973,0.693,0.315,0.563,0.524,�k�k��,4.8,�L
2023/09/27,17:50,0.514,0.777,0.480,0.971,0.692,0.316,0.563,0.526,�k�k��,4.8,�L
2023/09/27,18:00,0.515,0.777,0.480,0.970,0.693,0.316,0.563,0.525,�k�k��,5.2,�L
2023/09/27,18:10,0.514,0.779,0.481,0.971,0.693,0.316,0.564,0.524,�k�k��,4.6,�L
2023/09/27,18:20,0.515,0.780,0.481,0.972,0.690,0.315,0.562,0.525,�k�k��,4.2,�L
2023/09/27,18:30,0.514,0.779,0.481,0.971,0.692,0.316,0.563,0.524,�k�k��,5.5,�L
2023/09/27,18:40,0.514,0.778,0.481,0.971,0.692,0.315,0.563,0.526,�k�k��,5.6,�L
2023/09/27,18:50,0.513,0.779,0.481,0.973,0.693,0.316,0.563,0.524,�k�k��,6.4,�L
2023/09/27,19:00,0.515,0.777,0.481,0.975,0.693,0.316,0.564,0.523,�k�k��,5.9,�L
2023/09/27,19:10,0.513,0.779,0.482,0.972,0.692,0.316,0.562,0.525,�k�k��,5.9,�L
2023/09/27,19:20,0.514,0.776,0.481,0.973,0.692,0.316,0.563,0.524,�k�k��,5.6,�L
2023/09/27,19:30,0.512,0.779,0.480,0.972,0.693,0.316,0.561,0.523,�k�k��,5.4,�L
2023/09/27,19:40,0.512,0.777,0.480,0.973,0.691,0.316,0.562,0.523,�k�k��,6.4,�L
2023/09/27,19:50,0.513,0.776,0.481,0.974,0.691,0.315,0.563,0.524,�k�k��,5.4,�L
2023/09/27,20:00,0.513,0.773,0.479,0.969,0.692,0.314,0.562,0.522,�k�k��,4.3,�L
2023/09/27,20:10,0.512,0.773,0.480,0.971,0.688,0.316,0.563,0.525,�k��,4.4,�L
2023/09/27,20:20,0.510,0.772,0.479,0.972,0.689,0.315,0.561,0.523,�k��,3.9,�L
2023/09/27,20:30,0.509,0.775,0.480,0.968,0.688,0.314,0.561,0.526,�k�k��,3.6,�L
2023/09/27,20:40,0.510,0.774,0.478,0.971,0.687,0.315,0.564,0.522,�k�k��,2.9,�L
2023/09/27,20:50,0.511,0.776,0.479,0.971,0.690,0.314,0.561,0.524,�k��,3.4,�L
2023/09/27,21:00,0.511,0.773,0.478,0.968,0.687,0.316,0.560,0.523,�k��,3.8,�L
2023/09/27,21:10,0.510,0.772,0.479,0.969,0.688,0.316,0.561,0.523,�k��,3.5,�L
2023/09/27,21:20,0.510,0.773,0.479,0.970,0.690,0.314,0.561,0.522,�k��,3.3,�L
2023/09/27,21:30,0.510,0.772,0.478,0.967,0.687,0.316,0.560,0.524,�k�k��,4.3,�L
2023/09/27,21:40,0.509,0.771,0.477,0.967,0.687,0.313,0.560,0.523,�k��,3.6,�L
2023/09/27,21:50,0.509,0.771,0.477,0.966,0.687,0.315,0.560,0.523,�k�k��,4.3,�L
2023/09/27,22:00,0.508,0.769,0.479,0.968,0.687,0.315,0.560,0.521,�k�k��,4.0,�L
2023/09/27,22:10,0.508,0.770,0.477,0.967,0.686,0.316,0.560,0.522,�k�k��,3.3,�L
2023/09/27,22:20,0.507,0.770,0.478,0.967,0.686,0.314,0.560,0.523,�k�k��,3.4,��
2023/09/27,22:30,0.511,0.769,0.479,0.968,0.687,0.315,0.560,0.523,�k�k��,3.5,��
2023/09/27,22:40,0.508,0.770,0.479,0.967,0.685,0.314,0.561,0.522,�k�k��,3.7,��
2023/09/27,22:50,0.511,0.769,0.477,0.967,0.685,0.315,0.559,0.524,�k��,3.8,��
2023/09/27,23:00,0.509,0.771,0.478,0.964,0.687,0.314,0.560,0.523,�k�k��,3.3,��
2023/09/27,23:10,0.509,0.774,0.479,0.967,0.686,0.314,0.560,0.524,�k��,2.9,��
2023/09/27,23:20,0.510,0.772,0.480,0.966,0.687,0.314,0.561,0.523,�k��,3.2,��
2023/09/27,23:30,0.510,0.772,0.479,0.966,0.687,0.314,0.560,0.524,�k��,3.9,�L
2023/09/27,23:40,0.510,0.772,0.477,0.967,0.688,0.314,0.559,0.522,�k��,3.6,�L
2023/09/27,23:50,0.510,0.771,0.478,0.967,0.688,0.314,0.559,0.522,�k�k��,3.8,�L
